CZ-2D DEB, 44549

Orbit data source: Space-Track

CZ-2D DEB, 44549 is space debris in SSO originally from a launch on Wed, 25 Sep 2019 UTC launched from the Jiuquan Satellite Launch Center, China (JSC). Debris objects in space refer to the collection of defunct objects orbiting the Earth. Examples of debris include non-operational satellites, rocket bodies, and fragments generated from explosions, collisions, or faulty payload assembly.

Loading next visibility...
Identifier
44549, 2019-063C
Orbit
SSO
Country
Flag of CNCN / PRC
Related business
Manufacturer
BWYIC
Mission
Spacecraft
Bus & Motor
Unknown
Mass
Unknown
Launch date (UTC)
2019-09-25 (7 years ago)
Launch vehicle
Unknown
Launch site
Jiuquan Satellite Launch Center, China (JSC)
Object type
Payload
Rocket body
Debris
Shape & HBR
Unknown shape, 0.1 m
Radar Cross Section
Medium (>0.1 m² and <1 m²)

Expand to show TLE details & history
Last TLE update: 2 days ago

TLE from 2 days ago
0 CZ-2D DEB
1 44549U 19063C   26171.01532943  .00000355  00000-0  12521-3 0  9996
2 44549  98.3473 186.3208 0041313 119.2920 241.2407 14.39811517353119
Epoch: 2026-06-20T00:22Z
TLE epoch observation values (Epoch: 2026-06-20T00:22:04.462Z)
Latitude
-0.00004°
Longitude
-87.43381°
Altitude
776.357 km
Speed
7.458 km/s
True Right ascension
12h 25m 16s
True Declination
0° 00' 00"
Sunlit
Object was in daylight at epoch
Visualization orbit readout
Latitude
Unknown
Longitude
Unknown
Altitude
Unknown
Speed
Unknown
Apparent Right ascension
Unknown
Apparent Declination
Unknown
Sunlit
N/A
Visualization observer readout
Local Sidereal Time
21:23:31
Azimuth
Unknown
Elevation
Unknown
Doppler factor
Unknown
Orbital elements
Apogee altitude
785.71 km
Perigee altitude
726.762 km
Semi-major axis
7,134.373 km
Eccentricity
0.00413
Inclination
98.3473°
RAAN
186.3208°
Arg. of periapsis
119.292°
True anomaly
240.82672°
Mean anomaly
241.2407°
Eccentric anomaly
241.0336°
Mean motion
3.60172 °/min
Orbital period
99.95 mins
BSTAR
0.00012521

Documentation

Showing up to 5 results
|